sat.trackr.live / text

‹ back to catalog

FGRST (GLAST)

NORAD 33053 · 2008-029A

PAYLOAD INACTIVE UNKNOWN

§ Identity

Operator
Country
US
Launch date
2008-06-11
Launch site
AFETR
Launch vehicle
Mass (kg)
RCS (m²)
4.93

Purposes: science

External: N2YO · Heavens-Above · Gunter

§ Orbital elements

Epoch: 2026-09-20T02:14:15.730368Z

Period
94.47 min
Inclination
25.5821°
Eccentricity
0.0008013
Mean motion
15.24371776 rev/d
Perigee alt
487.2 km
Apogee alt
498.2 km
Semi-major
6,870.8 km
B*
8.3369e-5
RAAN
265.2857°
Arg perigee
9.8768°
Mean anomaly
350.1927°
Rev number
1,018

§ Raw data

FGRST (GLAST)1 33053U 08029A   26263.09323762  .00002439  00000+0  83369-4 0  99942 33053  25.5821 265.2857 0008013   9.8768 350.1927 15.24371776 10184

JSON: /api/v1/satellites/33053 · /tle

For live sub-satellite position, see the globe view (requires WebGL).

§ Visibility from observer

Set your observer location to see the next 7 days of passes ≥ 10°. The values pass through the URL so the page stays shareable.

No JS? Fill the form by hand. The geolocation button needs JavaScript.